Stations météo

réclame
Mon MeteoGroup
Santiago de Compostela/Labacolla, Espagne (8042): Température de l'air & dewpoint: 08.08.2020 21:00:00 - 14.08.2020 21:00:00 (CEST)Santiago de Compostela/Labacolla, Espagne (8042): Vitesse du vent: 08.08.2020 21:00:00 - 14.08.2020 21:00:00 (CEST)Santiago de Compostela/Labacolla, Espagne (8042): Direction du vent: 08.08.2020 21:00:00 - 14.08.2020 21:00:00 (CEST)Santiago de Compostela/Labacolla, Espagne (8042): reduced air pressure: 08.08.2020 21:00:00 - 14.08.2020 21:00:00 (CEST)Santiago de Compostela/Labacolla, Espagne (8042): visibility: 08.08.2020 21:00:00 - 14.08.2020 21:00:00 (CEST)
Date & Time tt [°C] td [°C] ff [km/h] ff [knt] dd ppp [hPa] vv [km]
14.08.2020 21:00:00 19,0 14,5 4 2 N 1016,2 30
14.08.2020 20:00:00 20,0 14,7 15 8 N 1015,9 30
14.08.2020 19:00:00 22,6 14,2 15 8 W 1015,2 30
14.08.2020 18:00:00 22,7 14,0 11 6 W 1015,1 30
14.08.2020 17:00:00 23,5 13,1 13 7 W 1015,3 30
14.08.2020 16:00:00 23,1 13,3 13 7 WNW 1015,6 30
14.08.2020 15:00:00 22,1 13,4 11 6 WNW 1016,0 30
14.08.2020 14:00:00 22,3 13,0 4 2 WSW 1016,2 30
14.08.2020 13:00:00 21,2 13,8 8 4 W 1016,9 30
14.08.2020 12:00:00 20,5 14,5 11 6 S 1017,1 30
14.08.2020 11:00:00 18,7 14,6 4 2 S 1017,4 30
14.08.2020 10:00:00 16,7 14,7 2 1 ESE 1017,7 10
14.08.2020 09:00:00 13,5 13,2 0 0 N 1018,2 4,0
14.08.2020 08:00:00 12,6 12,3 2 1 NW 1018,2 0,6
14.08.2020 07:00:00 13,8 13,5 0 0 N 1017,7 4,9
14.08.2020 06:00:00 12,9 12,3 4 2 W 1018,1 10
14.08.2020 05:00:00 13,8 13,3 4 2 W 1018,2 13
14.08.2020 04:00:00 15,1 14,1 4 2 S 1018,2 29
14.08.2020 03:00:00 15,2 14,1 0 0 N 1018,6 30
14.08.2020 02:00:00 15,1 14,1 0 0 N 1019,2 30
14.08.2020 01:00:00 16,2 14,7 0 0 N 1019,2 30
14.08.2020 00:00:00 16,2 14,6 4 2 NNE 1019,2 30
13.08.2020 23:00:00 16,9 14,3 4 2 NNE 1018,9 30
13.08.2020 22:00:00 17,6 14,1 9 5 N 1018,4 30
13.08.2020 21:00:00 19,5 14,7 13 7 N 1017,9 30
13.08.2020 20:00:00 20,0 15,3 13 7 N 1017,3 40
13.08.2020 19:00:00 22,1 14,7 13 7 NNW 1017,1 30
13.08.2020 18:00:00 23,8 14,4 8 4 WNW 1016,8 23
13.08.2020 17:00:00 23,3 15,1 4 2 NNE 1017,2 40
13.08.2020 16:00:00 23,1 15,1 4 2 W 1017,6 30
13.08.2020 15:00:00 21,7 14,0 8 4 SSE 1018,3 30
13.08.2020 14:00:00 20,0 14,9 0 0 N 1018,7 40
13.08.2020 13:00:00 19,6 14,3 2 1 NE 1019,0 30
13.08.2020 12:00:00 18,3 15,1 5 3 S 1018,9 30
13.08.2020 11:00:00 17,3 15,3 0 0 N 1018,8 15
13.08.2020 10:00:00 17,2 16,4 0 0 N 1018,5 15
13.08.2020 09:00:00 16,1 15,5 0 0 N 1018,6 1,5
13.08.2020 08:00:00 15,5 15,3 2 1 W 1018,4 0,9
13.08.2020 07:00:00 15,1 14,8 0 0 N 1018,1 6
13.08.2020 06:00:00 15,3 14,8 0 0 N 1018,2 1,8
13.08.2020 05:00:00 16,1 15,3 4 2 W 1018,2 20
13.08.2020 04:00:00 16,1 15,6 4 2 W 1018,3 18
13.08.2020 03:00:00 16,2 15,4 4 2 SW 1018,7 -
13.08.2020 02:00:00 16,8 14,6 5 3 SW 1018,6 15
13.08.2020 01:00:00 16,8 14,5 4 2 WSW 1018,5 30
13.08.2020 00:00:00 16,1 14,5 4 2 SW 1018,7 30
12.08.2020 23:00:00 16,2 14,4 2 1 S 1018,7 30
12.08.2020 22:00:00 16,8 14,8 0 0 N 1018,4 30
12.08.2020 21:00:00 17,6 14,5 4 2 NNE 1017,9 30
12.08.2020 20:00:00 18,5 14,2 16 9 NNW 1017,7 30
12.08.2020 19:00:00 18,2 14,4 21 11 NNW 1017,6 30
12.08.2020 18:00:00 20,6 13,3 22 12 N 1016,9 30
12.08.2020 17:00:00 20,1 15,1 15 8 N 1016,8 20
12.08.2020 16:00:00 19,0 15,9 18 10 NNW 1017,0 30
12.08.2020 15:00:00 18,1 16,0 16 9 NW 1017,0 18
12.08.2020 14:00:00 17,1 15,8 13 7 NNW 1016,8 15
12.08.2020 13:00:00 16,4 15,6 22 12 N 1016,9 16
12.08.2020 12:00:00 16,4 15,8 21 11 N 1016,3 25
12.08.2020 11:00:00 16,4 15,8 22 12 N 1015,6 8
12.08.2020 10:00:00 16,4 15,9 15 8 NNW 1015,3 6
12.08.2020 09:00:00 16,5 16,0 22 12 NNW 1014,6 12
12.08.2020 08:00:00 16,6 16,3 16 9 NNW 1014,0 3,0
12.08.2020 07:00:00 17,2 16,9 22 12 NNW 1013,7 -
12.08.2020 06:00:00 18,0 17,7 13 7 NW 1013,3 7
12.08.2020 05:00:00 18,3 18,0 9 5 WNW 1013,5 2,5
12.08.2020 04:00:00 18,5 18,2 8 4 NW 1013,6 6
12.08.2020 03:00:00 18,6 18,3 0 0 N 1013,6 3,3
12.08.2020 02:00:00 18,6 18,2 8 4 N 1013,9 5
12.08.2020 01:00:00 18,8 18,1 4 2 N 1013,9 -
12.08.2020 00:00:00 19,1 17,9 9 5 NNE 1013,6 9
11.08.2020 23:00:00 19,1 17,9 16 9 N 1012,8 11
11.08.2020 22:00:00 19,5 18,0 11 6 N 1012,7 12
11.08.2020 21:00:00 20,1 18,4 11 6 N 1012,7 12
11.08.2020 20:00:00 20,7 18,3 15 8 N 1011,8 25
11.08.2020 19:00:00 20,9 18,5 15 8 N 1012,1 17
11.08.2020 18:00:00 22,2 18,6 22 12 N 1011,3 21
11.08.2020 17:00:00 23,4 18,9 26 14 N 1010,8 30
11.08.2020 16:00:00 25,5 19,6 26 14 N 1010,2 24
11.08.2020 15:00:00 25,6 20,0 21 11 N 1010,3 40
11.08.2020 14:00:00 23,9 19,1 13 7 N 1011,0 35
11.08.2020 13:00:00 22,3 18,5 15 8 N 1011,3 26
11.08.2020 12:00:00 21,2 18,2 9 5 NNE 1011,5 30
11.08.2020 11:00:00 20,0 18,0 8 4 NNE 1012,0 30
11.08.2020 10:00:00 19,5 17,6 9 5 NNE 1011,8 18
11.08.2020 09:00:00 18,8 17,5 8 4 NNE 1011,5 12
11.08.2020 08:00:00 18,6 17,1 4 2 NNE 1011,6 12
11.08.2020 07:00:00 18,6 16,7 8 4 NNE 1011,3 18
11.08.2020 06:00:00 18,5 16,5 8 4 NNE 1011,2 19
11.08.2020 05:00:00 18,3 16,8 9 5 N 1011,7 15
11.08.2020 04:00:00 18,3 16,6 5 3 NNE 1012,0 13
11.08.2020 03:00:00 18,3 16,8 8 4 N 1012,7 9
11.08.2020 02:00:00 18,4 16,9 4 2 NNE 1013,0 12
11.08.2020 01:00:00 18,4 16,9 5 3 NNE 1013,1 10
11.08.2020 00:00:00 18,4 16,7 9 5 N 1013,5 10
10.08.2020 23:00:00 18,7 16,7 9 5 NNE 1013,5 15
10.08.2020 22:00:00 19,1 16,5 9 5 NNE 1013,3 15
10.08.2020 21:00:00 19,7 16,5 11 6 NNE 1013,1 20
10.08.2020 20:00:00 20,8 16,7 9 5 N 1012,6 20
10.08.2020 19:00:00 21,7 17,3 13 7 NNE 1012,8 21
10.08.2020 18:00:00 20,8 17,2 15 8 N 1013,0 22
10.08.2020 17:00:00 20,4 16,6 13 7 N 1013,1 16
10.08.2020 16:00:00 20,4 17,0 9 5 N 1013,5 18
10.08.2020 15:00:00 20,2 17,0 8 4 NNE 1013,6 30
10.08.2020 14:00:00 19,7 16,7 8 4 NNE 1013,9 25
10.08.2020 13:00:00 19,5 16,7 5 3 NNE 1014,0 22
10.08.2020 12:00:00 19,1 16,7 5 3 NNE 1014,1 24
10.08.2020 11:00:00 18,4 16,6 5 3 NNE 1014,1 15
10.08.2020 10:00:00 18,2 16,5 4 2 NNE 1014,1 8
10.08.2020 09:00:00 17,9 16,6 5 3 N 1014,1 12
10.08.2020 08:00:00 17,7 16,4 4 2 NNE 1014,1 20
10.08.2020 07:00:00 18,1 15,7 0 0 N 1013,9 21
10.08.2020 06:00:00 18,0 15,6 0 0 N 1013,9 22
10.08.2020 05:00:00 18,1 15,5 0 0 N 1014,2 30
10.08.2020 04:00:00 18,0 15,1 4 2 NNE 1014,5 27
10.08.2020 03:00:00 18,1 15,2 8 4 NNE 1014,8 26
10.08.2020 02:00:00 18,0 15,6 8 4 NNE 1015,1 30
10.08.2020 01:00:00 17,9 15,5 9 5 N 1015,5 25
10.08.2020 00:00:00 18,1 15,5 9 5 N 1015,6 30
09.08.2020 23:00:00 18,3 15,5 5 3 NNE 1015,9 30
09.08.2020 22:00:00 18,4 15,5 8 4 N 1015,8 17
09.08.2020 21:00:00 20,1 16,3 18 10 N 1015,3 23
09.08.2020 20:00:00 21,9 17,3 22 12 N 1014,5 30
09.08.2020 19:00:00 24,4 17,6 22 12 N 1014,1 18
09.08.2020 18:00:00 26,6 18,8 21 11 N 1013,8 30
09.08.2020 17:00:00 27,1 18,9 18 10 N 1013,9 30
09.08.2020 16:00:00 27,9 18,1 8 4 NNW 1014,0 30
09.08.2020 15:00:00 26,7 17,9 8 4 NNW 1014,8 30
09.08.2020 14:00:00 23,4 17,4 8 4 N 1015,7 30
09.08.2020 13:00:00 20,7 17,4 4 2 NE 1016,5 30
09.08.2020 12:00:00 18,4 17,1 8 4 N 1017,0 9
09.08.2020 11:00:00 17,3 17,0 4 2 N 1017,2 1,7
09.08.2020 10:00:00 16,7 16,5 4 2 N 1017,5 -
09.08.2020 09:00:00 16,2 15,9 4 2 N 1017,3 0,6
09.08.2020 08:00:00 15,7 15,4 8 4 N 1017,3 0,8
09.08.2020 07:00:00 14,9 14,4 8 4 WNW 1017,3 1,0
09.08.2020 06:00:00 16,3 15,3 2 1 NNE 1017,1 14
09.08.2020 05:00:00 17,1 16,5 4 2 N 1016,9 9
09.08.2020 04:00:00 16,7 15,8 4 2 NW 1017,2 11
09.08.2020 03:00:00 16,9 16,1 5 3 NW 1017,4 13
09.08.2020 02:00:00 17,4 16,5 8 4 NNW 1017,8 25
09.08.2020 01:00:00 18,3 16,8 13 7 NNW 1018,1 20
09.08.2020 00:00:00 19,2 17,2 13 7 NNW 1018,1 29
08.08.2020 23:00:00 20,0 17,2 15 8 NNW 1017,8 30
08.08.2020 22:00:00 21,4 17,6 16 9 NNW 1017,4 30
08.08.2020 21:00:00 23,6 18,1 18 10 N 1016,7 30

tt = Température de l'air
td = dewpoint
ff = Vitesse du vent
dd = Direction du vent
ppp = reduced air pressure
vv = visibility

stations d'obs. à proximité